Regional Weather Roundup
Issued by NWS

Home | Current Version | Previous Version | Graphics & Text | Print | Product List | Glossary On
Versions: 1 2 3 4 5 6 7 8 9 10 11 12 13 14 15 16 17 18 19 20 21 22 23 24 25 26 27 28 29 30 31 32 33 34 35 36 37 38 39 40 41 42 43 44 45 46 47 48 49 50
000
ASUS43 KLOT 070108
RWRIL

ILLINOIS REGIONAL WEATHER ROUNDUP
NATIONAL WEATHER SERVICE CHICAGO/ROMEOVILLE IL
800 PM CDT FRI MAY 06 2016

NOTE: "FAIR" INDICATES FEW OR NO CLOUDS BELOW 12,000 FEET WITH NO
SIGNIFICANT WEATHER AND/OR OBSTRUCTIONS TO VISIBILITY.

* THESE STATIONS ARE NOT UNDER NWS QUALITY CONTROL. THEY ALSO MAY NOT
  REPORT WEATHER SUCH AS PRECIPITATION OR FOG.

ILZ001-002-007-009-015-016-024-070200-
NORTHWEST ILLINOIS

CITY           SKY/WX    TMP DP  RH WIND       PRES   REMARKS
MOLINE         CLEAR     76  48  37 SW10      29.81S
STERLING*      CLEAR     77  48  36 SW8       29.79S
SAVANNA*       CLEAR     80  45  28 W10G17    29.78S
$$

ILZ003-004-008-010-011-017-018-070200-
NORTH CENTRAL ILLINOIS

CITY           SKY/WX    TMP DP  RH WIND       PRES   REMARKS
ROCKFORD       PTCLDY    78  48  34 SW3       29.78F
FREEPORT*      CLEAR     77  45  32 SW8       29.79S
ROCHELLE*      CLEAR     72  52  49 W8        29.79S
DE KALB*       CLEAR     75  50  41 W7        29.79F
$$

ILZ005-006-012>014-019>023-070200-
NORTHEAST ILLINOIS

CITY           SKY/WX    TMP DP  RH WIND       PRES   REMARKS
CHICAGO-OHARE  PTCLDY    77  47  34 W6        29.76F
CHICAGO-MIDWAY PTCLDY    79  45  29 W7        29.77S
AURORA         CLEAR     75  50  41 SW7       29.78F
LANSING*       CLEAR     75  46  34 W5        29.77F
JOLIET*        CLEAR     78  49  36 SW3       29.78F
WAUKEGAN       CLEAR     72  49  44 SW3       29.75F
DUPAGE AIRPORT CLEAR     74  48  39 W5        29.77F
KANKAKEE*      CLEAR    N/A N/A N/A W7        29.80S
WHEELING       CLEAR     78  46  32 W6        29.77F
MORRIS*        CLEAR     75  48  37 W6        29.77F
ROMEOVILLE*    CLEAR     74  45  36 W6        29.78F
NORTHERLY ISL    N/A     79  42  26 W7          N/A
NORTHERLY ISL    N/A     79  42  26 W7          N/A
$$

LMZ740>746-070200-
SOUTHERN LAKE MICHIGAN

STATION/POSITION SKY/WX   TEMP    WIND        PRES    VSBY  WAVE
                          AIR SEA DIR/SP/G                  HT/PER
                          (F)     (DEG/KT/KT) (MB)    (MI)  (FT/S)
SOUTHERN BUOY              49 41  150/ 12/ 12 1007.5F         1
WILMETTE HARBOR            59 46   CALM  /  2   N/A           1
HARRISON CRIB              82     270/ 14/ 16   N/A
BURNHAM HARBOR             78     300/  3/ 13   N/A
CALUMET HARBOR             82                 1007.7F
BURNS HARBOR               77     180/  8/ 11 1009.1F
MICHIGAN CITY              75     130/ 10/ 11   N/A
ST. JOSEPH                 61 33                N/A           0
$$

ILZ025>027-034>036-040-047-049-050-058-095>099-070200-
WEST-CENTRAL ILLINOIS

CITY           SKY/WX    TMP DP  RH WIND       PRES   REMARKS
QUINCY         CLEAR     73  47  39 SW7       29.88F
GALESBURG*     CLEAR     76  48  37 SW7       29.84F
MACOMB*        CLEAR     74  48  39 W8        29.88S
JACKSONVILLE*  CLEAR     75  47  35 SW6       29.88F
PITTSFIELD*    CLEAR     75  49  39 SW6       29.90F
$$

ILZ028>032-037-038-041>044-048-051>054-059>061-070200-
CENTRAL ILLINOIS

CITY           SKY/WX    TMP DP  RH WIND       PRES   REMARKS
PONTIAC        CLEAR     75  50  41 W8        29.82F
BLOOMINGTON    CLEAR     76  48  37 W12       29.85F
DECATUR        CLEAR     73  47  39 W6        29.86F
PEORIA         CLEAR     77  47  34 W6        29.84S
LACON*         CLEAR     77  46  32 SW6       29.81S
LINCOLN*       CLEAR     77  49  37 W3        29.85F
SPRINGFIELD    CLEAR     77  46  33 W9        29.87F
TAYLORVILLE    PTCLDY    71  49  44 SW8       29.88F HAZE
$$

ILZ033-039-045-046-055>057-062-063-070200-
EAST-CENTRAL ILLINOIS

CITY           SKY/WX    TMP DP  RH WIND       PRES   REMARKS
CHAMPAIGN      CLEAR     70  46  42 W8        29.85F
RANTOUL*       CLEAR     75  46  36 W8        29.84F
MATTOON        CLEAR     69  48  47 SW7       29.87F
PARIS*         CLEAR     65  52  62 SW6       29.87F
$$

ILZ079-100>102-070200-
SOUTHWEST ILLINOIS

CITY           SKY/WX    TMP DP  RH WIND       PRES   REMARKS
BELLEVILLE     CLEAR     71  50  46 SW3       29.91F
CAHOKIA*       CLEAR     75  45  34 VRB5      29.92F
SPARTA*        CLEAR     71  48  42 CALM      29.94F
$$

ILZ064>066-069>071-074>076-080>082-084>086-088>090-092>094-070200-
SOUTH-CENTRAL ILLINOIS

CITY           SKY/WX    TMP DP  RH WIND       PRES   REMARKS
CARBONDALE     CLEAR     67  52  58 S5        29.94F
CAIRO*         CLEAR     66  49  54 CALM      29.95F
EFFINGHAM*     CLEAR     67  52  57 S5        29.92S
MARION         CLEAR     64  54  68 CALM      29.95F
MT. VERNON     CLEAR     64  48  55 SW3       29.94F
CENTRALIA*     CLEAR     66  54  63 SW6       29.92F
SALEM*         CLEAR     69  50  50 S5        29.92F
METROPOLIS*    CLEAR     65  53  65 CALM      29.97R
$$

ILZ067-068-072-073-078-083-087-091-070200-
SOUTHEAST ILLINOIS

CITY           SKY/WX    TMP DP  RH WIND       PRES   REMARKS
LAWRENCEVILLE  CLEAR     65  49  56 SW6       29.91F
FLORA*         CLEAR     65  53  64 SW6       29.92F
FAIRFIELD*     CLEAR     65  51  60 SW3       29.92F
HARRISBURG*    CLEAR     66  52  59 CALM      29.95F
ROBINSON*      CLEAR     63  49  59 SW6       29.91F
CARMI*         CLEAR     64  52  64 SW5       29.93F
$$

ABBREVIATIONS USED IN REMARKS
   TC - TEMPERATURE IN CELSIUS
  WCI - WIND CHILL INDEX
   HX - HEAT INDEX
  VSB - VISIBILITY
$$





USA.gov is the U.S. government's official web portal to all federal, state and local government web resources and services.